Wind_Speed
29 30 31 33 35 37 38 39 42 44 46 47 48 50 52 53 53 54 58 60 60 62 62 61 60 59 58 57 58 59 60 60 59 59 59 59 57 51 47 45 42 41 40 40 39 38 39 40 42 44 45 48 50 50 48 49 49 50 51 48 45 44 43 45 46 44 41 40 41 44 46 44 41 38 36 35 37 38 38 37 39 40 41 41 42
28 29 32 34 37 39 40 41 42 44 45 46 47 48 49 50 51 54 58 61 61 62 64 65 66 65 64 63 62 62 62 62 62 61 58 55 49 43 41 40 39 39 38 38 37 36 36 36 38 41 44 47 51 53 53 52 51 50 49 47 45 46 45 46 47 44 41 39 37 39 40 39 38 37 36 36 37 38 38 38 39 40 40 41 43
28 29 30 33 36 39 41 43 45 46 46 46 47 47 48 49 50 53 57 61 62 63 65 67 69 69 69 68 66 65 64 62 60 57 52 47 41 38 38 38 38 37 36 36 36 35 34 34 35 37 40 44 48 53 56 57 55 53 50 46 45 47 47 48 48 46 44 42 40 38 37 37 37 37 36 36 37 38 38 37 38 39 39 40 42
29 30 29 30 34 37 41 43 46 49 50 49 48 49 50 51 52 53 57 60 62 63 65 66 68 69 69 69 68 66 63 60 54 49 45 42 39 38 39 39 38 36 35 35 34 34 33 33 34 35 37 39 42 47 52 55 57 58 57 54 52 50 50 50 50 50 48 47 44 38 35 36 37 37 37 37 37 37 37 36 37 37 38 38 39
32 32 31 31 33 36 40 42 44 48 50 51 50 51 52 52 52 53 55 58 60 61 62 63 64 65 66 66 64 61 57 52 47 42 40 38 39 41 40 39 38 37 35 34 33 33 33 33 34 34 35 36 38 40 43 46 50 54 57 58 58 56 56 55 55 55 52 49 44 37 34 36 38 38 38 37 37 37 36 35 34 34 35 35 37
34 34 34 35 35 37 39 41 43 46 49 51 52 53 53 53 53 53 54 56 57 58 59 60 61 63 63 60 56 52 47 43 40 38 36 36 39 41 41 39 39 38 36 34 33 32 32 33 33 33 34 34 35 36 38 39 41 44 47 49 51 52 54 55 55 53 49 45 40 35 35 37 39 39 39 38 37 37 36 35 33 33 33 34 35
35 36 37 38 38 38 39 40 41 45 48 51 52 53 54 54 54 54 55 56 56 57 58 58 59 60 58 54 49 44 40 38 36 35 36 38 40 41 40 40 40 39 37 35 33 32 32 32 33 33 33 33 33 34 35 36 37 38 40 41 43 44 45 46 46 45 44 43 39 35 37 39 39 40 40 38 37 37 37 36 36 35 35 35 36
35 37 38 39 39 38 39 39 40 42 46 49 52 53 54 55 55 56 57 57 57 57 58 57 56 55 52 47 42 37 34 34 35 37 39 42 44 43 41 40 40 40 39 37 34 32 32 32 32 32 32 32 31 32 32 33 34 36 36 37 38 39 39 40 40 40 41 43 41 38 39 41 41 42 41 40 39 38 39 39 39 39 38 37 37
34 36 37 37 37 38 39 39 40 42 44 47 49 51 53 54 55 56 56 56 56 55 54 53 51 49 46 42 39 37 35 35 36 38 41 44 45 44 41 40 40 40 40 38 36 34 32 32 32 32 31 31 31 31 31 32 33 34 35 35 36 36 36 36 37 39 40 42 43 42 42 42 42 43 42 40 40 41 41 41 41 42 41 39 37
34 34 35 35 35 36 36 36 38 41 44 46 48 49 50 50 51 52 53 52 52 51 51 50 49 47 45 45 45 43 39 37 37 39 42 45 45 43 41 39 38 39 39 39 37 35 34 33 33 32 32 32 32 31 31 31 32 32 33 34 34 34 34 35 35 37 39 42 44 44 44 45 44 44 43 40 41 42 42 41 42 43 44 42 39
34 34 35 34 34 33 33 33 35 38 41 43 45 46 47 47 47 48 49 49 49 49 48 48 47 48 48 49 50 47 41 38 39 40 44 46 44 42 39 38 37 38 39 39 38 36 35 34 34 33 32 32 32 32 31 31 31 31 32 33 34 34 34 34 34 36 38 41 45 46 45 46 46 46 45 42 42 42 41 40 41 42 44 44 41
34 35 36 35 34 35 35 35 36 36 37 38 39 41 41 42 42 42 43 44 45 46 46 46 47 47 47 47 49 47 42 39 40 42 45 47 44 40 37 35 35 37 39 39 38 38 37 36 35 35 34 34 33 33 32 32 31 31 32 32 33 33 34 34 34 35 36 39 43 47 47 47 46 47 48 46 44 44 41 38 39 41 43 44 43
35 36 36 35 36 38 38 37 38 37 37 37 37 38 38 38 37 36 37 38 39 40 42 44 45 46 46 47 50 50 45 42 42 43 45 47 44 39 36 34 34 36 38 39 39 38 38 37 36 36 35 35 35 35 34 33 33 33 32 32 32 32 33 34 34 35 36 37 40 45 48 49 48 48 49 48 47 47 45 42 40 41 43 44 44
37 36 35 37 39 40 40 40 40 40 39 38 38 38 37 36 35 34 35 38 41 41 39 40 43 45 47 49 51 52 50 45 43 44 45 45 44 40 38 37 37 36 37 38 39 39 39 39 39 38 37 36 36 36 36 35 35 35 34 34 33 33 32 33 33 34 36 37 39 42 45 48 50 50 50 49 48 50 50 47 44 42 42 43 45
39 37 37 39 41 42 42 42 42 41 41 40 40 39 37 33 29 30 34 40 47 48 43 39 41 43 47 49 50 52 53 49 47 46 46 46 44 42 41 41 40 39 39 38 38 39 40 41 41 41 40 39 38 37 37 38 37 37 36 36 36 35 34 33 33 33 35 37 38 40 42 45 47 49 51 51 50 52 53 52 49 46 43 42 43
41 41 41 41 42 43 44 44 43 43 43 42 42 40 37 33 28 29 36 44 49 49 45 42 41 42 46 48 49 52 54 53 51 49 48 47 46 44 44 43 43 42 43 41 40 40 40 41 42 43 42 42 41 40 39 39 39 39 39 38 38 38 37 36 35 34 35 36 38 39 40 41 43 45 48 51 52 53 56 56 52 49 47 44 42
44 44 43 43 44 45 46 46 45 45 44 43 43 42 40 38 34 37 43 46 47 45 44 44 44 44 45 46 48 51 53 55 55 52 50 49 48 45 44 45 45 45 45 44 43 42 41 42 43 44 44 44 44 43 42 42 42 41 41 41 40 40 39 38 38 37 36 36 37 39 40 41 41 41 43 47 50 53 57 59 56 51 50 49 46
47 46 45 45 46 47 48 48 48 47 46 44 44 44 43 42 41 40 43 44 45 42 40 43 47 47 46 46 48 51 55 59 61 59 57 56 53 48 46 48 49 48 48 47 46 46 45 44 43 44 45 46 46 46 45 45 44 44 44 44 43 42 41 41 40 39 39 38 38 39 40 41 41 41 41 42 45 49 54 58 58 55 52 52 51
51 50 48 48 48 49 49 50 50 50 49 47 45 45 45 45 45 44 44 45 45 42 37 39 46 51 50 49 49 50 55 60 62 62 63 62 59 54 52 52 52 51 51 50 49 49 48 47 46 45 45 46 47 48 48 48 47 47 46 46 46 45 45 44 43 42 41 40 40 40 41 41 42 42 42 42 43 45 48 53 57 58 55 55 55
53 52 51 50 49 49 49 50 50 50 50 49 48 47 46 46 47 47 47 48 48 47 42 41 47 52 51 50 50 50 53 58 61 63 65 66 63 58 56 55 55 54 53 52 51 49 49 49 48 47 47 47 47 48 49 50 50 50 49 49 48 48 48 47 46 45 44 43 42 42 42 42 43 44 44 44 44 44 45 48 52 56 57 57 58
54 53 51 49 48 48 47 47 48 49 49 49 49 48 47 46 47 48 48 50 51 51 50 50 53 55 55 55 56 55 55 59 63 66 68 70 68 66 62 59 57 57 56 55 54 53 52 51 51 50 49 48 48 48 49 50 51 52 52 51 51 51 50 50 49 49 48 47 46 44 44 44 44 45 46 46 46 46 46 47 48 51 55 57 59
53 52 50 49 48 47 46 46 46 46 47 47 47 47 47 47 48 48 48 50 51 51 52 53 55 56 57 56 54 52 53 56 61 65 69 71 72 70 67 64 61 60 60 60 59 58 57 55 53 53 52 51 50 50 50 50 51 52 52 53 53 53 53 53 52 51 51 50 50 48 47 46 46 46 47 48 49 49 49 49 49 49 51 54 56
53 51 49 49 48 47 46 45 45 45 45 46 46 46 46 47 47 47 48 48 49 51 52 54 55 56 56 53 47 46 49 53 56 59 61 64 66 66 65 64 63 63 63 63 62 61 59 57 55 55 55 54 53 53 53 53 52 52 52 53 53 54 54 55 55 55 54 54 53 52 51 50 49 48 48 49 50 51 51 52 52 51 51 52 53
52 50 49 48 47 47 46 46 45 46 45 45 45 45 46 46 47 47 47 47 48 49 50 52 54 54 54 51 46 44 44 42 41 42 45 49 54 60 62 62 63 64 64 64 64 63 62 61 59 56 55 55 56 56 56 55 55 54 53 53 53 53 54 55 56 57 57 57 56 55 55 54 53 52 52 51 51 52 53 53 54 54 54 54 54
52 51 50 49 48 48 47 47 47 47 46 45 45 45 45 46 46 46 46 46 47 48 48 49 50 50 51 50 50 49 47 41 34 31 36 43 48 55 59 58 58 61 63 65 65 65 65 63 61 58 56 56 57 57 58 58 57 57 56 55 55 55 54 54 56 57 58 59 59 59 58 57 57 56 56 56 55 54 55 55 55 56 56 57 57
53 52 51 50 50 49 48 48 48 48 48 47 46 46 46 46 46 46 47 47 48 49 48 48 48 47 44 42 46 52 54 53 46 37 33 35 39 48 55 54 52 55 59 62 65 67 67 65 64 63 63 63 64 65 65 64 62 60 59 58 58 57 56 55 56 57 58 59 60 60 61 60 60 60 59 59 59 59 58 58 58 57 57 58 59
55 54 53 52 51 51 50 50 50 49 49 49 48 47 47 48 48 48 49 50 51 51 50 49 48 45 40 40 46 52 53 55 57 51 44 40 42 51 58 59 58 59 59 59 62 65 67 67 67 66 67 68 68 68 67 65 64 63 62 61 60 59 58 58 58 59 59 60 60 60 61 62 62 62 63 62 62 62 62 62 61 61 60 60 60
56 56 55 54 53 53 52 52 52 52 51 50 50 49 49 50 50 51 51 52 53 53 53 52 52 49 47 50 54 55 54 55 58 61 61 59 59 63 67 67 67 66 62 60 60 62 63 65 66 65 64 64 63 63 62 61 61 62 63 63 62 62 62 61 61 61 61 61 61 61 61 61 62 63 64 64 64 65 65 65 65 64 64 63 63
58 58 56 56 56 56 55 55 55 55 54 53 53 52 52 53 53 53 54 54 55 56 56 56 56 55 55 57 57 57 57 57 58 61 65 68 68 69 70 70 69 66 63 61 60 60 60 61 62 62 61 59 58 58 58 58 58 58 60 61 62 63 63 62 62 62 63 63 63 63 63 63 62 62 63 64 65 66 66 67 67 67 67 67 67
61 60 59 59 59 58 58 57 58 58 58 57 57 56 55 55 55 55 56 57 57 57 58 58 59 58 58 59 60 59 58 59 59 61 64 66 68 69 69 68 67 64 63 61 60 60 60 60 60 60 59 59 58 57 56 56 56 56 56 57 58 60 62 63 63 63 63 64 64 65 66 66 66 65 64 64 65 66 66 67 68 69 69 69 69
63 63 63 62 62 61 59 59 58 59 60 61 61 60 59 57 58 58 58 58 57 58 59 60 61 61 61 61 61 61 61 61 61 62 63 65 66 66 66 65 64 64 63 61 61 61 60 60 60 60 60 59 59 58 57 57 57 56 56 56 57 58 61 63 64 64 64 63 63 63 65 67 68 68 67 67 68 68 68 69 69 69 69 70 70
65 65 65 65 64 63 61 60 60 61 62 63 63 63 62 61 61 60 59 58 58 59 60 61 62 62 62 62 62 62 62 62 63 63 64 64 64 64 63 63 63 62 62 61 61 61 61 61 60 60 60 60 60 60 59 59 58 58 57 57 57 59 61 62 64 65 65 65 64 64 64 65 67 68 68 69 70 71 71 71 71 71 71 71 71
64 65 66 66 66 64 63 63 63 63 63 63 63 63 63 63 63 62 61 59 59 59 60 61 61 62 62 62 62 62 62 62 63 63 63 63 63 62 62 61 61 61 61 61 61 61 61 62 62 61 61 61 62 62 62 62 61 61 60 59 60 61 62 63 63 64 65 66 67 67 67 67 66 66 67 70 71 73 74 74 74 74 74 74 74
61 63 65 66 66 64 65 67 68 66 64 62 62 62 62 63 63 63 62 61 59 59 60 60 61 61 62 62 62 62 62 62 63 63 63 62 61 61 61 61 61 61 61 61 61 62 62 62 63 63 63 63 63 64 64 64 64 64 63 63 63 64 64 65 65 64 64 65 66 68 69 68 67 66 67 69 71 72 74 75 75 75 76 76 76
58 60 62 63 64 64 64 67 69 68 64 62 61 60 60 61 62 61 61 60 59 59 60 61 62 62 62 61 61 60 61 62 62 63 62 62 61 61 61 61 61 61 62 62 63 63 63 64 64 65 65 66 66 66 66 66 66 67 67 67 67 67 67 67 68 67 67 66 67 69 70 69 68 68 69 70 70 71 71 72 74 75 76 76 76
60 60 60 60 61 62 62 64 66 64 61 60 61 59 57 58 59 59 59 59 59 60 61 62 62 62 62 61 60 60 61 61 62 62 62 62 62 62 62 62 62 62 62 63 63 64 65 65 66 67 67 68 69 69 69 69 69 70 70 70 70 70 70 70 70 70 70 70 70 71 71 71 71 72 72 72 72 71 71 71 72 73 74 75 75
62 62 61 59 60 61 61 61 61 61 59 59 60 59 57 56 57 58 60 60 60 60 60 61 61 61 61 61 60 61 61 62 62 63 63 64 64 64 64 64 64 64 64 64 64 65 66 67 67 69 69 70 71 71 71 72 72 73 73 73 74 74 73 73 73 73 73 73 73 74 74 74 75 75 75 75 75 75 74 73 73 73 74 75 76
64 64 64 62 61 62 62 61 61 61 59 58 59 58 57 57 57 58 59 59 59 59 59 59 60 60 61 61 62 62 63 63 64 65 65 65 65 65 66 66 66 66 66 66 66 66 67 68 69 70 71 72 73 73 73 74 74 75 75 76 77 77 77 76 76 76 75 75 76 76 77 77 77 77 77 77 78 78 78 77 76 76 76 76 78
68 67 67 66 65 65 65 64 64 64 62 60 59 59 58 58 58 58 59 58 59 60 60 60 61 62 63 64 64 65 66 66 67 67 67 67 68 68 68 69 69 69 68 68 68 68 69 70 71 71 72 73 74 75 75 75 76 76 77 77 78 79 79 79 79 79 78 78 78 79 79 79 79 79 79 79 79 80 80 80 80 80 81 81 81
72 71 71 70 69 69 68 68 68 68 66 64 63 62 61 61 60 60 60 61 62 63 64 64 65 65 66 67 67 68 69 69 69 70 70 70 70 71 71 71 71 71 70 70 69 70 70 71 72 73 74 74 75 75 76 76 77 78 78 79 79 80 81 81 81 81 81 81 81 81 81 81 81 81 81 81 81 81 82 82 83 84 85 86 87
74 74 74 74 74 73 72 72 71 71 71 70 69 67 65 65 65 63 63 64 65 66 68 69 69 69 70 70 70 71 71 72 72 73 73 73 73 74 74 74 73 73 72 71 71 72 72 73 73 74 74 74 75 75 75 76 77 78 79 80 80 81 82 82 82 82 83 83 82 82 82 82 82 82 82 82 82 82 83 84 85 87 88 89 90
76 76 76 77 77 78 77 77 76 75 75 74 73 72 71 70 69 68 68 68 68 69 70 72 73 73 74 74 74 74 75 76 76 76 76 75 75 75 75 75 74 74 73 74 74 74 74 74 74 74 74 74 74 75 75 75 76 77 78 79 81 81 82 82 83 83 83 83 83 84 83 83 83 82 82 83 83 84 85 85 86 87 89 90 91
79 79 80 79 80 80 80 80 80 79 79 78 77 76 75 74 73 73 72 72 72 71 72 74 76 77 77 77 77 77 77 78 78 78 77 76 76 75 75 75 75 74 75 76 76 76 75 75 74 74 74 74 74 74 74 74 74 75 76 78 80 81 81 82 83 83 83 83 83 83 83 83 83 83 84 84 85 85 86 86 87 87 88 89 90
82 82 83 82 82 82 82 82 82 82 82 82 81 79 78 77 77 76 76 75 75 74 75 77 78 79 79 79 79 79 78 79 78 77 76 75 75 75 75 75 75 75 76 77 77 76 75 74 74 73 73 73 72 72 72 72 72 73 75 76 78 78 79 80 81 81 82 82 82 82 82 83 83 84 85 85 85 85 85 85 86 86 87 87 88
85 85 86 85 85 84 84 84 84 85 85 84 83 82 81 80 79 79 79 78 78 77 77 77 79 79 79 79 79 79 79 78 78 76 75 75 75 75 74 74 75 76 77 77 76 75 74 73 73 72 71 71 71 70 70 70 71 71 72 73 74 74 75 75 77 78 79 80 80 81 81 82 83 84 84 84 84 84 84 84 84 84 84 84 85
87 87 88 88 87 87 86 86 85 86 86 86 85 84 83 83 82 82 81 80 80 79 78 78 80 80 80 80 79 78 78 78 77 76 76 75 75 74 74 74 74 76 76 76 75 74 72 72 71 71 70 69 68 67 67 68 68 69 69 69 70 70 71 71 72 73 74 75 76 77 79 80 81 81 82 82 82 82 82 82 82 82 82 81 81
88 88 88 89 89 89 88 86 86 86 87 87 86 86 86 85 85 84 84 82 81 81 80 80 80 81 82 81 79 78 77 77 76 75 74 73 73 72 72 72 73 74 73 73 73 71 70 70 70 69 68 67 65 64 64 64 65 65 66 66 66 66 66 67 68 68 69 70 71 72 74 75 75 76 77 77 78 78 79 79 78 78 78 77 76
87 87 87 88 88 88 88 87 86 86 86 86 86 86 86 86 86 86 85 83 82 81 80 79 78 79 80 80 79 78 76 75 74 73 71 70 70 70 70 70 71 70 70 70 69 68 68 68 67 66 66 64 63 61 61 62 62 62 62 62 62 62 63 63 64 64 64 65 67 68 69 69 69 70 71 72 72 73 73 73 72 72 71 71 70
83 83 84 84 85 85 85 84 84 83 84 83 83 83 83 83 83 83 82 81 80 78 77 76 75 74 74 75 75 75 74 72 70 69 67 67 67 67 67 68 68 67 67 66 65 65 65 66 65 64 63 61 60 59 59 59 59 60 60 60 59 60 60 60 61 61 62 63 63 64 64 65 65 66 66 67 67 67 67 66 66 65 65 64 63
77 78 78 79 80 81 81 80 79 78 78 78 78 78 78 77 76 76 77 77 76 75 74 73 72 71 70 69 70 70 71 70 68 66 64 63 64 65 65 65 64 63 63 63 63 62 63 63 63 61 60 58 58 57 57 57 58 58 59 59 58 58 58 58 59 59 59 59 60 60 60 61 61 62 62 62 62 62 62 61 60 60 59 58 58
72 72 73 74 74 75 75 74 74 73 72 72 73 73 72 71 70 70 70 70 70 70 69 69 69 68 67 66 65 66 67 67 66 64 62 62 62 62 63 63 62 62 61 61 61 61 60 60 59 58 57 56 56 55 56 56 57 58 58 57 57 56 56 56 56 56 56 56 56 56 57 57 57 57 57 57 57 56 56 55 55 54 53 53 52
Wind_Direction
256 251 246 245 244 243 240 238 238 239 241 241 241 241 242 244 245 244 243 245 249 251 255 258 260 263 266 270 274 275 277 278 281 283 285 287 288 288 288 287 287 287 286 285 284 282 278 273 269 263 255 250 251 253 251 251 256 259 259 259 257 256 257 258 257 258 261 265 265 261 259 258 256 253 250 248 245 243 244 243 243 242 239 235 231
257 251 245 240 240 240 238 236 236 238 239 241 243 243 245 247 247 245 244 246 250 254 257 259 260 260 262 265 269 273 276 280 283 284 286 286 286 287 289 289 290 291 290 289 288 286 282 276 270 265 259 253 250 250 250 252 257 258 257 257 255 255 255 255 255 257 262 269 269 262 257 254 251 249 247 245 243 241 241 242 244 244 242 238 233
258 254 249 243 240 239 237 235 234 236 238 239 242 244 246 247 248 247 246 248 252 257 261 262 262 262 262 264 267 270 274 279 283 285 285 285 286 291 295 294 293 294 295 295 293 291 287 281 274 267 262 258 254 252 251 252 254 254 253 254 253 252 251 252 255 259 263 267 268 261 254 250 247 244 242 240 240 239 238 240 243 245 244 241 236
256 253 251 248 245 243 240 236 234 235 238 240 242 245 246 247 249 249 250 251 254 259 262 265 266 266 266 267 269 271 274 278 281 282 283 283 286 294 299 296 293 294 296 297 296 294 290 285 279 272 265 260 257 255 253 252 252 250 251 253 253 252 249 250 255 261 264 265 265 259 249 244 242 239 236 235 235 234 234 237 241 244 246 243 239
252 252 251 249 247 246 245 241 238 237 239 241 244 246 248 249 251 252 253 254 257 260 264 266 268 269 269 270 272 274 276 277 277 278 281 283 287 294 298 296 293 292 293 295 296 294 292 287 282 276 271 266 261 258 255 254 252 251 252 254 255 254 252 252 255 260 262 261 258 252 242 238 237 234 231 230 229 228 229 234 239 243 245 244 241
252 251 251 249 247 246 247 246 244 242 242 242 244 246 248 250 252 254 255 257 259 261 264 267 269 270 271 272 274 275 274 273 273 277 282 286 291 295 295 294 293 290 290 292 294 294 292 289 284 279 275 271 267 264 261 259 257 255 255 256 256 256 255 254 255 256 255 251 248 242 235 232 234 232 228 227 227 225 227 231 237 240 242 244 242
256 253 251 249 247 246 247 247 246 245 244 244 245 247 249 250 252 254 256 258 260 262 264 267 270 271 272 273 274 273 273 274 276 282 288 291 295 296 293 293 292 289 286 287 290 293 292 290 287 283 278 273 270 268 266 264 262 260 258 257 256 256 254 253 252 250 245 241 239 236 230 229 231 231 228 227 229 229 229 232 235 236 238 241 243
256 255 254 252 251 249 248 248 248 248 247 247 247 248 250 251 252 254 256 258 261 263 264 266 269 271 272 272 271 270 272 276 280 286 290 293 293 292 290 290 290 287 284 283 285 288 290 290 288 285 280 276 272 269 267 266 264 262 260 258 256 255 253 251 249 246 241 237 235 233 230 229 230 230 228 229 232 234 234 235 237 236 235 237 241
254 254 255 255 254 252 250 250 250 251 251 251 250 250 250 251 253 254 256 258 260 262 264 265 267 269 270 267 264 262 265 272 278 283 288 291 290 287 285 287 286 283 281 280 281 283 286 288 288 286 281 276 271 268 266 265 264 262 261 259 257 255 253 251 248 244 240 236 234 233 232 230 230 230 229 231 235 237 237 238 239 239 238 237 238
255 255 256 256 255 255 253 251 250 251 251 252 253 252 252 252 254 255 256 258 259 261 263 264 265 265 264 262 261 261 263 268 275 281 286 288 285 281 281 283 282 279 277 277 278 280 282 285 286 285 282 277 273 268 266 264 263 262 261 260 258 256 254 252 248 244 240 235 233 233 234 232 231 230 230 232 236 238 239 240 240 240 240 240 238
257 258 258 258 258 259 257 253 250 249 250 252 253 255 255 255 255 256 257 258 259 260 261 262 263 263 263 264 266 265 262 266 274 280 284 283 280 277 279 280 278 276 274 272 273 275 277 280 283 284 283 280 276 272 268 265 263 263 262 261 259 257 255 253 250 247 243 237 233 232 234 234 232 230 231 233 236 238 239 242 243 242 242 241 240
259 260 261 261 262 260 258 255 253 252 252 253 255 257 258 257 257 257 259 260 260 261 261 260 260 261 263 266 267 267 265 267 274 279 281 280 277 277 278 279 278 275 272 270 270 271 273 275 278 281 282 281 278 275 272 269 266 264 263 262 260 258 255 253 251 249 246 242 236 233 233 234 234 232 232 233 235 237 236 238 241 244 245 244 242
259 260 262 264 263 262 260 257 256 255 254 255 256 258 260 262 262 263 265 266 265 263 261 258 256 256 260 261 264 268 268 268 272 278 279 278 276 277 279 280 279 277 272 269 268 268 269 271 273 276 278 280 278 276 274 272 270 268 267 265 263 260 257 254 252 250 248 245 241 237 235 236 236 235 234 234 235 236 235 235 237 242 246 246 244
260 260 262 263 264 264 263 262 260 259 257 256 256 257 260 265 271 276 278 276 272 267 261 258 254 254 256 258 261 265 266 266 270 276 278 277 277 279 281 281 280 278 275 271 268 267 266 267 269 270 272 274 275 274 272 271 271 270 270 269 267 265 262 258 255 252 250 247 245 242 240 239 239 238 237 235 235 235 235 235 236 238 242 246 245
262 262 262 263 264 264 264 264 263 263 261 259 258 257 257 261 270 279 280 275 271 267 262 259 257 256 257 259 261 263 265 265 268 274 278 277 279 282 283 282 280 278 278 275 272 269 266 265 265 266 267 269 270 270 269 268 269 269 269 270 270 269 267 263 260 257 254 250 247 245 244 243 242 241 240 239 237 236 235 235 237 236 236 240 244
262 262 261 262 263 264 264 264 263 263 263 262 262 260 258 255 250 249 252 256 260 263 262 261 262 262 260 260 263 264 266 265 267 274 278 277 279 283 283 283 281 279 279 277 275 272 269 266 264 263 264 264 265 266 266 265 265 266 267 267 268 268 268 267 264 261 258 255 252 249 247 246 246 245 243 242 240 237 234 235 237 236 234 235 238
264 263 262 261 262 263 263 263 263 262 262 262 262 262 261 257 248 240 241 247 255 261 263 264 265 265 262 262 265 266 267 266 265 270 274 275 278 282 283 282 281 280 279 277 275 273 271 268 265 263 261 261 261 262 263 263 262 263 264 265 264 264 265 266 266 265 263 260 257 254 251 249 248 247 246 245 242 239 235 235 236 237 234 233 233
270 268 267 266 265 264 264 264 263 262 261 260 259 259 259 258 253 246 244 248 253 257 262 265 266 264 262 263 265 264 265 265 263 265 270 274 275 278 281 282 280 279 279 277 274 273 272 270 268 265 263 261 260 259 260 260 261 261 262 262 263 262 261 261 262 263 263 262 260 258 255 253 250 249 248 247 245 242 239 237 237 238 236 233 233
275 274 273 272 270 268 267 266 265 263 262 260 258 257 256 256 255 251 247 248 249 253 259 263 263 261 260 261 263 262 263 266 267 268 271 273 273 274 278 280 279 277 277 276 275 273 271 270 269 268 266 263 261 259 258 258 258 258 259 259 261 261 261 260 259 259 259 260 260 260 258 256 253 251 250 249 248 247 244 241 240 240 238 235 234
277 277 277 275 273 270 268 266 265 264 264 262 260 258 256 255 255 254 251 249 249 252 256 255 255 257 258 260 262 261 263 266 268 271 272 273 273 273 275 276 275 274 275 274 274 273 271 270 268 268 267 266 263 261 259 258 257 256 256 256 257 258 259 260 259 259 258 257 257 258 258 257 256 254 253 251 250 250 248 246 243 242 241 239 236
277 277 277 275 272 270 268 266 265 264 263 263 261 260 257 255 255 255 254 253 253 255 255 252 252 257 259 259 259 259 261 265 267 270 272 273 274 274 275 274 271 270 271 272 272 272 271 269 267 266 266 266 265 263 262 260 258 257 256 255 255 255 255 257 258 259 259 258 256 256 256 256 256 256 255 254 253 253 252 250 248 245 243 242 240
276 276 274 272 270 269 268 266 265 264 263 262 261 261 260 258 256 255 255 255 255 255 255 254 254 256 259 259 259 260 263 267 271 272 274 275 276 276 275 273 271 269 268 269 271 271 271 270 269 267 266 265 265 264 263 262 260 259 257 256 255 254 254 254 255 256 257 258 257 257 256 255 255 255 255 255 255 254 254 253 251 250 247 245 243
275 273 271 270 269 269 268 267 265 264 262 261 261 260 260 259 258 256 255 255 255 255 254 254 253 253 255 256 257 261 266 270 274 277 278 278 277 276 274 271 270 268 267 267 267 268 269 270 271 270 267 264 264 263 263 263 262 261 259 258 257 256 255 254 254 254 254 255 256 256 256 256 255 255 255 255 255 255 255 254 253 252 251 249 247
272 271 269 268 268 268 267 266 265 264 263 262 261 260 259 258 257 257 256 255 255 254 254 254 253 253 253 251 250 254 261 266 271 275 277 277 277 277 275 272 270 268 267 265 264 264 265 267 270 271 267 264 263 263 263 263 263 263 261 260 259 258 256 256 255 254 254 253 254 254 255 255 255 255 254 254 254 254 255 255 254 253 253 252 251
270 269 268 267 267 266 266 266 265 264 263 262 261 260 259 258 257 256 256 255 255 255 256 255 253 252 252 251 248 247 249 253 258 264 270 275 277 277 277 274 270 268 267 266 265 264 264 265 266 266 265 263 263 263 265 266 265 264 263 262 261 259 257 257 256 256 255 254 253 253 253 253 254 254 254 254 254 254 254 254 254 254 253 253 252
269 268 267 266 266 266 266 266 266 265 264 263 262 261 261 260 259 258 257 256 256 256 256 253 252 252 253 251 250 248 247 246 248 253 260 265 266 268 271 271 269 269 268 268 266 265 265 265 264 263 263 264 264 265 266 267 266 265 263 263 262 260 259 259 259 258 257 256 255 254 253 253 253 253 253 253 253 253 253 254 254 254 254 253 253
268 268 268 267 266 266 266 266 266 265 265 263 263 262 261 260 260 260 259 258 257 256 254 252 252 253 249 245 246 249 248 245 245 246 246 245 247 254 262 267 270 271 270 268 267 265 265 264 264 263 264 266 266 267 266 265 263 262 262 262 261 260 260 261 261 261 260 258 257 256 255 254 253 253 253 253 253 253 253 253 254 254 254 254 254
268 268 268 268 267 266 266 265 265 264 264 264 263 262 260 260 260 260 259 259 258 258 257 256 255 254 250 248 248 251 251 249 246 246 246 246 248 254 259 264 268 270 269 267 266 265 265 265 264 264 264 265 266 266 265 263 261 260 259 259 258 258 259 260 261 261 261 260 258 257 257 256 255 254 254 253 253 253 253 253 253 253 254 254 254
268 268 268 268 267 267 267 266 265 264 263 263 262 261 260 260 259 259 259 259 260 260 260 259 259 257 255 254 254 255 254 253 250 249 249 250 252 255 259 262 265 267 267 266 266 265 265 265 265 265 264 263 263 263 263 262 260 258 258 257 256 256 256 256 257 258 258 258 258 257 257 256 256 255 255 255 255 254 254 254 253 253 253 253 254
269 268 268 267 266 266 266 266 266 267 266 264 262 260 259 259 259 259 259 259 260 261 261 261 259 258 257 257 257 257 256 255 253 252 252 252 253 256 259 261 263 264 265 265 265 265 265 265 265 266 265 264 263 262 261 260 259 257 256 257 257 256 254 253 253 255 256 257 257 257 256 256 255 255 255 255 255 255 255 255 254 254 253 253 253
268 268 267 266 265 264 264 265 265 266 267 267 266 264 262 261 260 259 259 260 260 260 260 259 259 258 257 257 257 257 257 256 254 253 253 253 254 256 258 260 261 263 263 264 264 265 265 265 265 265 266 266 265 264 262 261 260 258 257 258 259 258 256 254 252 253 254 255 256 256 256 256 256 256 256 255 255 255 255 255 255 255 254 254 253
268 267 267 266 265 264 263 263 262 262 263 265 266 267 267 266 264 263 262 261 260 259 258 257 257 257 257 257 256 256 256 256 255 255 255 255 255 256 257 258 259 261 262 263 263 264 264 264 264 264 264 265 266 266 265 264 263 262 260 260 261 260 259 257 256 254 254 253 253 254 255 256 257 257 257 257 256 256 256 256 256 255 255 255 254
265 265 266 266 266 266 265 264 261 260 260 261 263 265 267 268 268 267 266 264 261 259 258 257 256 256 256 257 256 256 255 255 254 254 255 255 256 257 257 257 258 259 260 261 261 262 263 263 263 263 263 263 264 264 265 264 264 263 263 262 261 261 261 261 260 258 257 256 255 253 253 254 255 256 257 257 257 257 257 256 257 257 256 256 255
260 261 262 263 263 264 264 265 264 263 262 262 262 263 265 266 266 266 265 264 262 260 259 258 257 256 255 255 255 255 254 254 253 253 254 255 256 257 258 259 259 259 260 260 261 261 261 262 263 264 263 262 262 262 263 263 264 264 263 263 262 261 261 262 261 261 260 260 259 258 255 253 254 255 257 257 257 257 257 257 257 257 257 257 257
261 260 259 260 261 260 260 261 263 264 264 263 263 262 262 262 263 263 262 261 260 259 258 258 258 258 257 256 255 255 254 254 253 253 253 254 256 257 258 259 260 260 261 261 261 261 261 261 262 263 263 263 262 262 262 262 262 263 263 262 262 261 261 261 261 261 261 261 261 261 261 259 257 257 258 258 258 257 257 257 257 256 256 257 257
265 263 261 260 261 261 260 260 261 263 264 264 263 262 260 260 261 261 261 260 259 258 258 258 259 259 259 259 258 257 256 255 255 255 255 256 256 257 258 258 259 259 260 261 261 262 262 262 262 262 262 262 262 262 262 262 261 261 261 261 261 261 261 261 261 261 261 261 261 261 262 262 262 261 261 261 260 259 258 257 256 255 255 255 256
266 265 264 262 262 262 262 261 262 263 263 263 263 263 262 261 260 260 261 260 260 259 259 260 260 260 260 260 259 259 259 259 259 259 259 259 258 258 258 258 258 259 259 260 261 261 262 263 263 262 262 262 262 262 262 262 261 261 261 261 261 261 261 261 260 260 260 260 261 260 260 261 262 262 263 263 263 263 261 260 258 256 255 254 254
266 266 266 266 265 264 264 264 263 262 262 261 262 262 262 262 261 260 261 261 262 262 262 262 262 262 262 261 261 260 260 261 261 261 261 261 261 261 261 261 261 261 261 261 261 261 261 262 262 262 262 262 262 262 261 261 261 261 261 261 261 261 261 261 261 261 260 260 260 260 260 260 261 261 262 263 264 264 264 264 264 262 260 258 256
267 267 267 267 267 267 267 267 267 266 264 263 262 262 262 262 262 262 263 263 263 263 263 262 261 261 260 261 261 260 260 261 261 262 262 263 264 264 264 264 264 264 263 263 263 262 262 262 261 261 261 261 261 262 262 261 261 261 261 261 261 262 262 262 262 261 261 261 260 261 261 261 261 260 260 261 262 263 264 265 265 265 265 264 263
268 269 269 269 269 269 269 269 269 269 268 267 265 264 263 262 262 262 262 263 263 264 263 262 261 260 260 260 261 262 262 263 263 264 265 266 266 266 267 267 267 266 266 266 265 265 264 263 263 262 261 261 261 261 261 261 261 261 261 261 261 261 261 262 262 262 262 262 262 261 261 261 261 261 261 261 261 261 262 262 263 263 263 264 265
269 270 270 271 271 270 269 268 268 268 268 268 267 266 264 263 262 261 261 260 260 261 262 263 263 263 263 263 263 264 264 265 265 265 265 266 266 267 267 268 268 268 268 268 268 267 266 265 265 264 264 263 262 262 261 261 261 261 261 261 261 261 261 261 261 262 262 263 263 263 263 263 263 263 263 263 262 262 261 261 261 261 261 262 262
268 268 268 268 269 269 269 268 268 267 267 267 267 266 265 264 264 263 262 261 260 260 261 262 263 263 263 263 263 263 263 264 264 264 265 265 266 267 268 268 269 270 270 270 270 269 268 267 267 266 265 265 264 263 262 262 261 260 260 260 261 261 261 261 261 261 262 262 263 264 264 264 265 265 265 264 264 263 263 262 261 261 261 261 261
266 266 266 266 267 267 268 268 268 268 268 267 267 267 266 266 265 264 263 262 262 261 261 261 262 262 262 262 262 262 262 263 264 264 265 266 267 268 269 270 271 271 271 271 270 270 269 269 268 267 266 266 265 264 264 263 262 262 261 260 260 260 260 261 261 262 262 262 263 263 264 265 265 265 265 265 264 264 264 263 263 263 262 262 262
267 267 267 266 266 267 267 268 268 268 268 268 268 267 267 267 266 265 265 264 263 262 262 262 262 263 263 263 264 264 264 264 265 266 267 268 268 269 270 271 272 272 271 270 270 269 269 269 268 268 267 267 266 265 265 264 263 263 262 261 261 261 261 261 262 262 263 263 263 264 264 264 264 264 264 265 265 265 265 265 265 264 264 264 264
267 267 267 267 267 267 267 268 268 268 268 269 268 268 268 267 267 266 266 266 265 264 264 264 264 264 264 265 265 265 266 266 267 268 268 268 269 269 269 270 270 270 270 269 269 269 269 269 268 268 267 267 266 266 266 265 264 264 263 263 263 263 263 263 263 263 263 263 263 264 264 264 265 265 265 266 266 266 266 266 266 266 266 265 265
267 267 267 268 268 267 267 267 268 268 269 269 269 269 269 269 268 268 267 267 267 267 266 266 266 267 267 266 266 267 267 267 268 268 268 267 267 268 268 267 267 268 268 269 269 269 269 269 269 269 268 267 267 266 266 265 265 265 265 265 265 265 265 265 264 264 264 264 264 264 264 264 264 265 266 266 267 267 267 267 267 267 267 267 267
266 267 267 268 268 268 268 268 267 268 268 269 269 270 270 269 269 269 268 268 268 267 267 267 267 267 268 268 268 268 268 268 267 267 267 267 267 267 267 267 267 267 267 268 269 269 269 269 269 269 269 268 268 267 267 266 266 266 266 266 266 266 266 266 266 266 266 265 265 265 264 264 265 265 266 266 266 267 267 268 268 268 268 269 269
266 266 267 267 267 268 268 268 267 267 267 267 267 267 267 267 268 268 268 268 268 267 267 266 266 266 266 267 268 268 268 267 267 267 267 267 267 267 266 266 266 266 267 267 267 268 268 268 268 268 268 268 269 268 268 267 267 267 267 267 267 267 267 267 267 267 266 266 266 265 265 266 266 266 267 267 268 268 268 269 269 270 270 270 271
266 266 266 266 266 266 266 266 266 265 265 266 266 265 265 266 266 267 268 268 268 268 268 268 267 267 266 267 267 268 269 268 268 267 267 266 266 266 266 265 265 265 266 266 266 266 266 267 267 267 267 268 268 268 268 268 268 268 268 268 267 267 267 267 267 267 267 266 266 267 267 267 267 268 268 268 269 270 270 271 271 272 272 272 272
264 264 264 264 264 265 265 266 266 266 266 266 266 266 266 266 266 266 267 268 268 268 268 269 268 268 267 266 266 266 267 267 267 266 265 265 264 264 264 264 264 264 264 264 264 264 264 265 266 267 268 268 268 268 268 268 268 268 268 268 268 268 268 268 268 267 267 267 267 268 268 268 268 269 269 269 270 271 272 272 273 273 273 273 273
263 263 263 263 264 264 265 266 267 267 268 268 268 268 268 267 266 266 266 266 267 267 267 267 267 267 266 265 264 263 264 264 264 264 263 262 261 261 262 262 262 262 262 262 263 263 264 265 266 267 268 268 268 267 267 267 267 267 268 268 269 269 269 268 268 268 268 269 269 269 269 269 269 270 270 271 271 272 273 273 273 273 273 273 272
Height
10628 10628 10628 10627 10627 10628 10630 10631 10632 10632 10634 10635 10637 10638 10640 10641 10642 10641 10641 10640 10639 10638 10637 10638 10639 10641 10643 10643 10642 10641 10641 10642 10645 10647 10648 10648 10647 10645 10642 10640 10639 10638 10637 10636 10635 10634 10633 10632 10632 10634 10635 10637 10638 10639 10640 10641 10642 10643 10644 10645 10645 10647 10649 10650 10650 10651 10653 10654 10655 10656 10657 10659 10660 10662 10663 10665 10666 10666 10667 10668 10669 10670 10672 10673 10675
10625 10625 10625 10625 10624 10624 10626 10628 10629 10629 10630 10632 10633 10634 10636 10637 10637 10637 10636 10635 10634 10633 10632 10632 10633 10636 10639 10640 10640 10638 10637 10637 10638 10639 10642 10642 10642 10640 10638 10636 10633 10632 10630 10629 10629 10629 10628 10628 10628 10629 10630 10632 10633 10633 10635 10636 10637 10638 10639 10640 10641 10642 10644 10645 10645 10646 10648 10649 10650 10651 10652 10653 10655 10656 10659 10660 10661 10663 10664 10664 10664 10666 10668 10670 10671
10621 10621 10621 10622 10621 10621 10622 10625 10626 10626 10627 10628 10629 10630 10631 10632 10632 10632 10631 10631 10630 10628 10627 10626 10627 10630 10633 10635 10636 10636 10635 10635 10634 10634 10635 10635 10635 10635 10634 10632 10630 10627 10625 10624 10623 10623 10623 10622 10623 10623 10624 10626 10627 10628 10629 10630 10632 10634 10635 10635 10636 10637 10639 10640 10640 10641 10643 10644 10646 10646 10647 10648 10650 10652 10654 10656 10657 10659 10660 10660 10660 10662 10664 10666 10668
10617 10617 10617 10618 10618 10617 10618 10620 10622 10622 10622 10624 10625 10625 10625 10626 10627 10627 10627 10626 10625 10624 10621 10620 10621 10623 10626 10629 10631 10632 10633 10633 10632 10631 10630 10630 10630 10629 10629 10628 10626 10624 10622 10620 10619 10619 10618 10618 10618 10618 10619 10621 10622 10622 10623 10625 10626 10628 10629 10630 10631 10632 10633 10635 10636 10636 10638 10640 10641 10642 10643 10644 10645 10648 10650 10651 10653 10654 10655 10656 10657 10658 10660 10662 10664
10613 10613 10614 10615 10614 10613 10612 10614 10617 10617 10617 10618 10619 10619 10619 10621 10621 10621 10621 10620 10620 10619 10617 10615 10614 10616 10619 10623 10625 10627 10628 10628 10628 10627 10626 10626 10625 10624 10624 10623 10622 10620 10619 10618 10617 10616 10615 10614 10614 10614 10615 10616 10617 10617 10618 10619 10621 10622 10623 10624 10625 10626 10628 10630 10631 10632 10633 10635 10637 10638 10639 10640 10641 10643 10645 10646 10648 10650 10651 10652 10654 10655 10656 10658 10660
10608 10608 10609 10609 10608 10608 10608 10610 10612 10612 10612 10613 10613 10613 10614 10615 10616 10615 10614 10614 10614 10613 10612 10610 10608 10609 10613 10616 10619 10620 10621 10622 10622 10622 10621 10621 10620 10619 10619 10618 10618 10616 10615 10614 10613 10613 10612 10611 10610 10610 10611 10611 10611 10612 10613 10614 10615 10617 10617 10618 10619 10621 10622 10624 10626 10627 10629 10630 10632 10633 10635 10636 10637 10638 10640 10642 10644 10646 10647 10648 10650 10652 10653 10654 10656
10603 10603 10603 10602 10603 10605 10605 10606 10607 10607 10607 10607 10608 10609 10609 10610 10611 10610 10609 10608 10609 10608 10607 10605 10603 10603 10607 10610 10612 10613 10614 10615 10615 10616 10616 10615 10615 10615 10614 10614 10613 10612 10611 10610 10609 10609 10609 10608 10607 10607 10607 10607 10607 10607 10608 10609 10610 10611 10612 10613 10614 10615 10617 10618 10620 10622 10624 10626 10628 10629 10630 10631 10633 10635 10637 10638 10640 10642 10643 10644 10646 10647 10649 10650 10651
10598 10597 10596 10597 10599 10601 10601 10601 10602 10602 10602 10602 10603 10604 10604 10605 10606 10605 10604 10604 10604 10604 10603 10602 10600 10599 10601 10604 10606 10606 10607 10608 10609 10610 10610 10610 10610 10610 10610 10609 10608 10607 10607 10606 10606 10606 10606 10605 10605 10604 10604 10604 10604 10604 10604 10605 10605 10606 10607 10609 10609 10611 10612 10613 10615 10617 10619 10621 10623 10625 10625 10627 10629 10630 10633 10635 10636 10638 10639 10640 10641 10642 10644 10646 10647
10593 10593 10592 10593 10594 10596 10597 10598 10599 10598 10597 10597 10598 10598 10599 10600 10601 10601 10601 10601 10601 10600 10599 10598 10597 10595 10595 10597 10598 10600 10601 10602 10604 10605 10605 10605 10605 10605 10605 10604 10604 10603 10602 10602 10601 10602 10602 10602 10602 10602 10601 10601 10601 10601 10601 10602 10602 10603 10603 10604 10606 10607 10608 10609 10610 10612 10614 10616 10619 10620 10621 10623 10624 10626 10629 10631 10632 10633 10635 10636 10637 10638 10640 10642 10644
10588 10588 10588 10589 10590 10591 10594 10596 10595 10593 10592 10592 10591 10592 10594 10595 10596 10596 10596 10597 10597 10596 10595 10594 10593 10591 10590 10590 10591 10593 10596 10597 10598 10600 10600 10600 10600 10600 10600 10600 10600 10599 10599 10598 10598 10598 10598 10599 10598 10598 10598 10599 10599 10599 10599 10599 10599 10600 10600 10601 10602 10603 10604 10605 10606 10607 10609 10611 10614 10615 10617 10618 10620 10622 10624 10626 10628 10629 10631 10632 10634 10635 10636 10638 10640
10584 10584 10584 10585 10586 10588 10589 10590 10589 10588 10587 10587 10587 10587 10588 10590 10591 10592 10591 10592 10592 10591 10590 10589 10588 10587 10585 10584 10584 10586 10590 10592 10593 10594 10595 10595 10594 10594 10595 10595 10595 10595 10595 10595 10594 10595 10595 10595 10595 10595 10595 10595 10596 10596 10596 10597 10597 10597 10597 10598 10599 10600 10600 10601 10602 10603 10604 10606 10609 10610 10612 10613 10616 10618 10620 10622 10623 10625 10627 10628 10629 10631 10632 10634 10636
10580 10579 10579 10581 10583 10582 10583 10584 10583 10583 10584 10584 10583 10583 10583 10584 10586 10588 10588 10588 10587 10586 10585 10584 10584 10583 10582 10580 10578 10579 10583 10586 10587 10588 10588 10588 10588 10588 10589 10589 10589 10590 10590 10591 10591 10591 10591 10592 10592 10592 10592 10591 10592 10592 10593 10593 10594 10594 10594 10594 10595 10596 10596 10597 10598 10599 10600 10602 10604 10605 10607 10609 10611 10613 10615 10617 10619 10621 10622 10624 10625 10626 10628 10630 10633
10576 10576 10577 10578 10576 10575 10576 10577 10578 10579 10580 10580 10580 10580 10579 10580 10583 10585 10586 10585 10583 10581 10580 10580 10580 10579 10578 10576 10573 10572 10576 10580 10581 10582 10582 10581 10581 10582 10582 10583 10584 10585 10585 10586 10587 10587 10587 10588 10588 10588 10588 10588 10588 10588 10588 10589 10590 10590 10590 10591 10591 10592 10593 10593 10594 10595 10596 10597 10599 10600 10603 10604 10606 10608 10610 10612 10615 10616 10618 10620 10621 10622 10623 10626 10629
10571 10572 10574 10573 10570 10569 10570 10571 10572 10573 10575 10576 10577 10577 10577 10579 10583 10586 10586 10583 10578 10575 10575 10575 10575 10574 10572 10570 10568 10568 10569 10573 10575 10576 10576 10575 10575 10575 10576 10576 10578 10579 10580 10581 10581 10582 10583 10583 10584 10584 10584 10584 10584 10584 10584 10585 10585 10586 10586 10587 10588 10588 10589 10590 10591 10592 10593 10593 10594 10596 10598 10599 10601 10603 10605 10607 10609 10611 10613 10615 10617 10618 10619 10621 10624
10566 10568 10569 10567 10565 10564 10564 10565 10566 10566 10568 10570 10571 10573 10576 10581 10588 10590 10588 10580 10570 10567 10569 10570 10570 10568 10566 10564 10563 10562 10564 10567 10570 10570 10570 10570 10569 10569 10570 10570 10571 10573 10574 10575 10576 10577 10578 10578 10579 10579 10580 10580 10580 10581 10581 10581 10581 10582 10582 10583 10584 10584 10585 10586 10587 10588 10589 10589 10590 10591 10593 10594 10596 10598 10599 10602 10604 10606 10608 10610 10612 10614 10615 10617 10619
10562 10562 10563 10563 10562 10560 10560 10559 10560 10560 10562 10563 10565 10568 10571 10578 10583 10583 10577 10568 10561 10561 10565 10566 10565 10563 10562 10560 10559 10559 10560 10562 10565 10565 10564 10565 10564 10563 10564 10564 10565 10567 10567 10569 10569 10570 10571 10572 10573 10574 10574 10575 10576 10576 10577 10577 10578 10578 10578 10579 10580 10580 10581 10582 10583 10584 10585 10586 10587 10587 10588 10590 10591 10593 10594 10596 10598 10600 10602 10604 10606 10608 10610 10612 10614
10554 10555 10557 10558 10558 10556 10555 10554 10555 10555 10557 10558 10559 10561 10564 10568 10571 10568 10563 10559 10558 10560 10563 10561 10559 10559 10558 10557 10557 10556 10556 10556 10557 10558 10558 10559 10559 10558 10558 10558 10560 10560 10561 10562 10563 10564 10565 10566 10567 10568 10569 10570 10570 10571 10572 10573 10573 10574 10575 10575 10576 10577 10577 10578 10579 10580 10581 10582 10583 10584 10585 10585 10587 10588 10589 10591 10592 10594 10596 10598 10601 10603 10605 10607 10609
10545 10547 10550 10551 10551 10550 10550 10549 10549 10550 10551 10553 10554 10555 10556 10558 10560 10560 10559 10558 10557 10558 10560 10559 10555 10554 10553 10552 10552 10551 10550 10548 10549 10550 10551 10552 10554 10554 10553 10553 10553 10554 10555 10556 10557 10557 10559 10560 10561 10562 10563 10564 10565 10566 10567 10568 10569 10570 10570 10571 10572 10572 10573 10574 10575 10576 10576 10577 10578 10579 10580 10581 10582 10583 10584 10586 10587 10589 10591 10592 10594 10597 10599 10601 10603
10536 10539 10541 10543 10543 10543 10543 10542 10542 10543 10544 10547 10548 10549 10550 10550 10551 10552 10553 10554 10553 10554 10559 10558 10550 10545 10545 10545 10546 10548 10546 10543 10543 10544 10543 10543 10546 10549 10550 10549 10548 10548 10549 10550 10551 10552 10553 10554 10556 10557 10558 10559 10560 10561 10562 10562 10563 10564 10565 10566 10567 10567 10568 10569 10570 10571 10572 10572 10573 10574 10575 10577 10578 10579 10580 10581 10582 10583 10585 10586 10588 10590 10593 10595 10596
10529 10530 10532 10534 10535 10535 10536 10535 10535 10536 10536 10539 10540 10541 10543 10544 10544 10545 10545 10547 10547 10549 10553 10551 10542 10537 10539 10541 10543 10544 10543 10540 10539 10538 10536 10534 10537 10541 10544 10544 10543 10542 10542 10544 10545 10547 10547 10549 10550 10551 10552 10553 10554 10555 10556 10557 10557 10558 10559 10560 10561 10562 10563 10564 10565 10566 10567 10567 10568 10569 10570 10571 10572 10573 10574 10575 10577 10578 10579 10580 10582 10584 10586 10588 10590
10524 10524 10525 10525 10526 10527 10528 10528 10529 10529 10530 10531 10532 10533 10535 10537 10538 10538 10538 10539 10541 10543 10544 10542 10536 10535 10537 10538 10539 10540 10539 10537 10534 10532 10529 10526 10528 10532 10535 10538 10539 10538 10537 10538 10539 10540 10541 10542 10543 10545 10546 10547 10548 10549 10550 10550 10551 10552 10553 10554 10555 10556 10557 10558 10559 10560 10561 10562 10563 10564 10564 10565 10566 10567 10568 10570 10571 10572 10573 10574 10576 10577 10579 10581 10583
10518 10518 10518 10517 10518 10519 10520 10521 10522 10523 10524 10525 10525 10526 10527 10529 10530 10531 10532 10532 10534 10534 10535 10534 10532 10531 10532 10533 10535 10536 10535 10532 10528 10526 10523 10519 10519 10523 10527 10529 10531 10533 10533 10532 10532 10533 10534 10536 10537 10539 10540 10541 10542 10543 10543 10543 10544 10545 10547 10548 10549 10551 10552 10553 10554 10554 10555 10556 10557 10558 10559 10559 10560 10561 10562 10563 10564 10565 10566 10567 10569 10570 10572 10574 10576
10511 10511 10511 10510 10511 10512 10512 10513 10514 10515 10517 10519 10520 10521 10521 10521 10522 10523 10524 10525 10525 10526 10525 10525 10525 10525 10525 10527 10531 10531 10528 10526 10523 10520 10517 10512 10512 10514 10517 10520 10522 10524 10526 10527 10526 10526 10527 10529 10531 10533 10535 10535 10535 10535 10535 10536 10537 10539 10540 10542 10543 10545 10546 10547 10548 10548 10549 10550 10551 10552 10553 10554 10555 10555 10556 10557 10558 10558 10559 10561 10562 10563 10565 10567 10568
10502 10503 10504 10504 10505 10505 10505 10505 10506 10507 10509 10511 10513 10514 10515 10515 10515 10516 10516 10517 10517 10517 10517 10517 10517 10518 10520 10523 10526 10525 10521 10519 10518 10515 10510 10508 10507 10507 10509 10512 10514 10515 10516 10518 10519 10520 10521 10522 10525 10527 10528 10528 10527 10527 10527 10529 10531 10532 10534 10535 10537 10538 10539 10540 10541 10542 10542 10544 10545 10546 10547 10548 10549 10549 10550 10550 10551 10552 10553 10554 10555 10556 10558 10559 10560
10494 10496 10497 10498 10498 10498 10498 10498 10499 10499 10501 10503 10505 10507 10507 10508 10508 10509 10509 10509 10509 10509 10509 10510 10511 10512 10516 10519 10520 10519 10518 10517 10515 10511 10508 10507 10506 10503 10503 10505 10507 10508 10508 10508 10510 10513 10514 10516 10519 10520 10520 10520 10519 10519 10520 10522 10524 10526 10527 10528 10529 10530 10531 10532 10533 10534 10535 10536 10537 10539 10540 10541 10542 10543 10543 10544 10544 10545 10546 10546 10547 10549 10550 10551 10553
10486 10487 10489 10490 10491 10491 10492 10492 10491 10492 10493 10495 10497 10498 10499 10500 10501 10501 10502 10502 10502 10502 10503 10505 10506 10509 10516 10517 10512 10511 10513 10514 10512 10509 10507 10508 10505 10500 10498 10499 10501 10502 10502 10502 10502 10504 10505 10508 10511 10513 10512 10512 10511 10512 10513 10515 10517 10518 10520 10521 10522 10522 10523 10525 10525 10526 10527 10529 10530 10531 10532 10533 10534 10535 10535 10536 10537 10537 10538 10539 10540 10541 10542 10544 10545
10477 10479 10480 10481 10482 10483 10484 10484 10484 10484 10485 10487 10488 10490 10490 10491 10492 10492 10493 10494 10494 10495 10497 10500 10503 10507 10511 10509 10503 10502 10505 10507 10507 10504 10502 10502 10500 10495 10493 10493 10494 10496 10497 10497 10496 10496 10497 10499 10502 10504 10504 10503 10503 10503 10504 10506 10508 10510 10511 10513 10514 10515 10515 10516 10517 10517 10519 10521 10522 10523 10524 10525 10526 10526 10527 10528 10529 10530 10531 10532 10533 10534 10535 10536 10537
10469 10470 10471 10472 10473 10474 10475 10475 10475 10476 10477 10478 10479 10480 10481 10482 10482 10483 10483 10484 10484 10486 10488 10491 10495 10498 10499 10496 10494 10494 10496 10498 10500 10497 10493 10492 10491 10488 10488 10488 10488 10489 10490 10490 10489 10489 10490 10490 10492 10495 10496 10496 10496 10495 10495 10496 10499 10502 10502 10503 10505 10506 10507 10508 10508 10508 10510 10511 10513 10514 10515 10516 10517 10518 10519 10520 10521 10522 10523 10524 10525 10526 10527 10528 10530
10461 10462 10464 10465 10464 10465 10466 10466 10466 10467 10468 10470 10471 10472 10472 10473 10474 10474 10474 10475 10476 10477 10479 10481 10483 10486 10486 10485 10484 10485 10487 10489 10490 10489 10486 10485 10484 10482 10482 10482 10482 10482 10482 10482 10482 10482 10482 10483 10484 10485 10487 10487 10488 10487 10486 10487 10490 10492 10493 10494 10495 10496 10497 10498 10499 10499 10500 10501 10504 10506 10506 10506 10507 10508 10510 10511 10512 10513 10514 10515 10516 10518 10519 10520 10522
10453 10454 10455 10456 10457 10458 10458 10458 10458 10457 10458 10459 10460 10462 10464 10465 10465 10466 10466 10467 10469 10470 10471 10471 10472 10474 10475 10475 10475 10476 10477 10479 10479 10480 10479 10478 10477 10476 10476 10476 10475 10475 10475 10475 10475 10474 10475 10476 10476 10477 10478 10478 10479 10479 10479 10480 10481 10483 10484 10485 10485 10486 10486 10488 10489 10490 10490 10492 10494 10496 10496 10496 10497 10499 10501 10502 10503 10503 10504 10505 10506 10508 10510 10511 10513
10444 10444 10444 10446 10448 10450 10451 10451 10451 10450 10448 10448 10448 10450 10453 10456 10457 10458 10459 10461 10462 10463 10462 10461 10462 10464 10465 10465 10466 10467 10468 10468 10469 10469 10470 10470 10470 10470 10470 10469 10468 10468 10468 10468 10468 10467 10468 10468 10469 10470 10470 10470 10470 10471 10472 10472 10472 10474 10476 10476 10476 10476 10476 10478 10479 10481 10481 10483 10485 10486 10486 10486 10487 10489 10492 10493 10493 10493 10494 10495 10496 10498 10500 10501 10503
10433 10433 10433 10433 10436 10439 10442 10443 10444 10443 10441 10439 10438 10439 10441 10444 10446 10448 10450 10452 10454 10453 10452 10452 10453 10455 10455 10456 10458 10458 10459 10459 10459 10459 10460 10461 10462 10462 10462 10462 10461 10461 10461 10461 10461 10460 10460 10461 10461 10462 10463 10463 10463 10462 10463 10464 10464 10465 10467 10468 10468 10468 10467 10468 10470 10472 10472 10473 10475 10477 10477 10477 10478 10480 10481 10482 10482 10483 10484 10485 10486 10488 10490 10491 10492
10424 10423 10423 10422 10423 10427 10430 10430 10432 10433 10434 10434 10433 10433 10433 10433 10434 10436 10438 10440 10442 10442 10442 10443 10445 10446 10447 10448 10449 10450 10451 10451 10450 10450 10451 10452 10453 10454 10454 10454 10454 10454 10454 10454 10454 10453 10452 10452 10453 10454 10455 10456 10455 10454 10454 10455 10455 10456 10458 10460 10460 10460 10459 10459 10461 10462 10463 10463 10465 10467 10468 10468 10469 10471 10471 10471 10472 10472 10473 10474 10476 10477 10479 10480 10481
10416 10415 10415 10413 10414 10417 10418 10417 10417 10420 10425 10427 10428 10429 10428 10426 10426 10426 10426 10428 10430 10431 10432 10433 10435 10436 10437 10438 10440 10441 10442 10442 10442 10442 10443 10444 10444 10445 10446 10446 10446 10447 10446 10446 10446 10446 10445 10445 10445 10445 10446 10446 10446 10445 10446 10447 10447 10448 10449 10451 10451 10451 10451 10451 10451 10452 10453 10453 10454 10454 10455 10458 10461 10462 10462 10461 10461 10461 10462 10464 10466 10467 10467 10468 10470
10405 10405 10405 10405 10405 10408 10409 10407 10405 10407 10413 10417 10419 10421 10421 10419 10417 10417 10417 10418 10420 10421 10422 10423 10424 10425 10426 10428 10430 10432 10433 10433 10433 10434 10435 10436 10436 10436 10437 10437 10438 10438 10438 10438 10438 10437 10437 10437 10437 10436 10436 10435 10435 10436 10438 10439 10439 10439 10440 10441 10441 10441 10442 10442 10442 10442 10443 10444 10444 10443 10444 10447 10450 10451 10450 10449 10450 10452 10453 10454 10455 10456 10456 10456 10459
10393 10393 10395 10396 10396 10397 10398 10399 10398 10399 10404 10407 10407 10409 10411 10411 10410 10409 10409 10409 10410 10411 10412 10413 10414 10415 10416 10418 10420 10422 10422 10423 10424 10425 10426 10427 10427 10428 10428 10429 10429 10429 10430 10430 10429 10429 10428 10428 10428 10427 10426 10426 10426 10427 10428 10429 10429 10429 10430 10431 10431 10431 10432 10433 10433 10433 10433 10434 10434 10434 10434 10436 10437 10437 10437 10438 10440 10441 10442 10443 10444 10444 10445 10447 10448
10381 10381 10383 10386 10388 10388 10389 10391 10392 10393 10396 10397 10396 10398 10401 10403 10403 10401 10400 10400 10400 10402 10404 10405 10405 10406 10408 10409 10411 10411 10412 10413 10414 10415 10415 10416 10417 10417 10418 10419 10420 10420 10421 10421 10421 10421 10420 10419 10418 10417 10416 10416 10416 10417 10417 10418 10418 10418 10419 10420 10420 10421 10422 10423 10423 10424 10424 10424 10424 10424 10424 10424 10425 10426 10427 10427 10428 10428 10430 10431 10433 10434 10435 10436 10436
10369 10370 10372 10374 10377 10378 10379 10381 10383 10384 10387 10388 10388 10390 10392 10393 10393 10393 10393 10393 10393 10393 10395 10397 10397 10397 10398 10399 10400 10401 10401 10402 10403 10403 10403 10404 10405 10406 10407 10408 10409 10410 10411 10412 10412 10412 10411 10410 10408 10407 10406 10406 10406 10406 10407 10407 10408 10408 10408 10409 10409 10410 10410 10411 10412 10413 10414 10414 10414 10413 10413 10413 10414 10416 10417 10417 10418 10418 10419 10420 10421 10423 10424 10423 10423
10358 10360 10361 10363 10365 10367 10368 10370 10371 10372 10376 10379 10380 10382 10383 10383 10383 10384 10385 10385 10385 10384 10385 10386 10387 10387 10387 10387 10388 10389 10390 10391 10391 10391 10392 10393 10394 10395 10395 10396 10397 10398 10400 10401 10401 10401 10400 10399 10398 10396 10396 10396 10396 10395 10396 10397 10397 10397 10398 10398 10398 10398 10399 10400 10401 10402 10403 10403 10403 10402 10402 10402 10403 10404 10406 10407 10408 10408 10409 10410 10411 10411 10411 10409 10409
10347 10349 10351 10353 10355 10357 10359 10360 10360 10361 10363 10366 10368 10371 10373 10373 10374 10376 10376 10376 10375 10373 10373 10374 10374 10375 10376 10377 10377 10378 10378 10379 10380 10380 10381 10382 10383 10383 10383 10384 10385 10387 10388 10389 10389 10389 10388 10387 10386 10385 10385 10386 10386 10386 10386 10387 10387 10386 10386 10387 10387 10387 10387 10388 10389 10389 10390 10391 10391 10391 10391 10392 10392 10393 10394 10396 10397 10398 10399 10399 10399 10398 10398 10396 10396
10339 10340 10340 10341 10343 10345 10346 10348 10349 10350 10351 10353 10355 10358 10360 10361 10363 10365 10366 10366 10365 10363 10362 10362 10363 10364 10365 10366 10367 10367 10367 10367 10368 10369 10370 10370 10371 10371 10371 10372 10373 10375 10376 10377 10376 10375 10375 10374 10374 10374 10374 10375 10375 10375 10376 10376 10376 10375 10375 10375 10375 10375 10375 10376 10377 10378 10378 10379 10379 10380 10380 10381 10382 10383 10384 10385 10386 10386 10386 10386 10386 10385 10385 10385 10385
10329 10328 10329 10329 10329 10330 10331 10334 10335 10337 10339 10340 10342 10344 10347 10348 10350 10352 10353 10353 10354 10355 10354 10352 10352 10353 10353 10354 10355 10356 10355 10355 10356 10357 10359 10360 10360 10360 10360 10361 10362 10363 10364 10363 10362 10362 10362 10362 10362 10363 10363 10363 10363 10364 10364 10364 10364 10364 10364 10363 10363 10363 10364 10364 10365 10366 10367 10368 10368 10369 10369 10370 10371 10372 10373 10373 10373 10372 10372 10372 10372 10372 10372 10372 10373
10317 10315 10316 10317 10317 10317 10318 10320 10322 10323 10325 10327 10328 10331 10333 10335 10337 10338 10339 10340 10342 10343 10343 10341 10340 10339 10340 10341 10342 10343 10344 10344 10344 10345 10348 10349 10349 10349 10349 10350 10351 10352 10351 10350 10348 10349 10349 10349 10350 10350 10351 10351 10351 10352 10352 10353 10353 10353 10352 10351 10351 10351 10352 10353 10354 10355 10356 10357 10358 10359 10360 10361 10361 10361 10360 10359 10358 10357 10358 10358 10358 10359 10359 10359 10360
10303 10303 10303 10304 10306 10307 10307 10308 10308 10309 10310 10311 10314 10317 10319 10321 10322 10323 10324 10326 10328 10329 10329 10328 10327 10327 10327 10328 10329 10330 10332 10333 10333 10335 10337 10338 10338 10339 10340 10340 10340 10339 10337 10336 10335 10336 10337 10337 10338 10338 10339 10339 10340 10340 10341 10342 10341 10341 10340 10339 10339 10340 10342 10343 10344 10345 10346 10347 10348 10349 10349 10349 10348 10348 10347 10346 10345 10345 10346 10346 10346 10346 10347 10347 10347
10291 10290 10290 10291 10292 10294 10295 10296 10296 10295 10295 10296 10298 10301 10304 10306 10307 10308 10310 10311 10312 10314 10316 10316 10314 10314 10315 10315 10316 10318 10319 10320 10322 10324 10326 10327 10327 10327 10329 10329 10327 10325 10323 10322 10322 10324 10325 10325 10326 10326 10327 10328 10329 10330 10330 10330 10330 10330 10330 10329 10329 10331 10332 10333 10333 10334 10335 10336 10337 10338 10337 10336 10335 10335 10334 10334 10334 10335 10335 10335 10334 10334 10334 10335 10335
10279 10278 10277 10278 10279 10280 10282 10284 10284 10282 10281 10282 10283 10286 10288 10290 10292 10293 10295 10296 10298 10299 10301 10302 10301 10300 10300 10301 10304 10306 10307 10308 10310 10312 10313 10313 10314 10315 10316 10316 10315 10313 10312 10311 10311 10312 10313 10314 10314 10314 10316 10317 10318 10320 10320 10320 10320 10320 10320 10320 10320 10321 10321 10322 10323 10323 10324 10325 10326 10326 10325 10324 10323 10324 10324 10323 10323 10323 10323 10322 10322 10322 10322 10322 10322
10268 10267 10266 10265 10266 10266 10268 10271 10272 10271 10270 10270 10271 10272 10273 10274 10276 10277 10279 10282 10284 10285 10286 10288 10289 10288 10287 10287 10290 10292 10294 10295 10297 10298 10299 10301 10302 10303 10304 10304 10303 10302 10302 10302 10301 10302 10303 10302 10302 10303 10304 10305 10307 10309 10310 10310 10310 10310 10310 10311 10311 10312 10312 10312 10312 10313 10314 10314 10314 10314 10313 10313 10313 10314 10313 10313 10312 10311 10311 10311 10311 10311 10311 10311 10312
10255 10255 10255 10254 10254 10253 10254 10257 10259 10259 10258 10258 10259 10259 10259 10260 10261 10262 10263 10266 10268 10270 10272 10274 10276 10277 10276 10276 10277 10278 10280 10282 10284 10286 10287 10289 10290 10291 10291 10291 10291 10292 10292 10292 10292 10293 10292 10292 10292 10293 10294 10295 10297 10299 10299 10299 10300 10300 10301 10301 10302 10302 10302 10302 10302 10303 10303 10303 10303 10302 10303 10303 10304 10304 10303 10302 10301 10301 10301 10301 10301 10301 10301 10302 10302
10243 10243 10243 10242 10242 10241 10241 10242 10244 10245 10245 10245 10246 10246 10246 10248 10249 10250 10251 10252 10254 10256 10258 10260 10263 10265 10266 10267 10267 10267 10267 10269 10272 10274 10276 10278 10279 10279 10279 10279 10280 10282 10282 10282 10283 10284 10283 10281 10282 10283 10285 10287 10288 10289 10290 10290 10291 10291 10291 10292 10292 10293 10293 10293 10293 10293 10293 10293 10293 10293 10294 10294 10294 10294 10293 10292 10292 10291 10291 10291 10292 10292 10292 10292 10293
10230 10230 10229 10229 10228 10228 10228 10229 10231 10232 10233 10234 10234 10235 10236 10238 10239 10241 10241 10242 10243 10245 10247 10248 10250 10252 10254 10256 10257 10257 10256 10257 10259 10262 10265 10267 10267 10267 10267 10268 10269 10271 10272 10272 10273 10274 10274 10273 10273 10274 10276 10278 10280 10281 10281 10282 10282 10282 10282 10282 10283 10284 10284 10284 10283 10283 10284 10284 10284 10285 10285 10285 10284 10284 10284 10284 10283 10283 10283 10283 10283 10283 10283 10283 10283
10217 10218 10217 10217 10217 10218 10218 10220 10221 10222 10224 10225 10224 10224 10225 10226 10228 10230 10231 10232 10233 10235 10236 10237 10238 10239 10241 10243 10245 10246 10247 10247 10248 10250 10253 10254 10255 10256 10257 10258 10259 10260 10262 10263 10264 10265 10265 10265 10266 10267 10269 10270 10271 10272 10273 10273 10273 10273 10273 10274 10274 10275 10275 10275 10275 10275 10275 10276 10276 10277 10276 10276 10275 10275 10275 10275 10275 10275 10275 10275 10274 10274 10274 10274 10274